Regional Weather Roundup
Issued by NWS

Home | Current Version | Previous Version | Text Only | Print | Product List | Glossary Off
Versions: 1 2 3 4 5 6 7 8 9 10 11 12 13 14 15 16 17 18 19 20 21 22 23 24 25 26 27 28 29 30 31 32 33 34 35 36 37 38 39 40 41 42 43 44 45 46 47 48 49 50

000
ASUS45 KSLC 210310
RWRUT

UTAH REGIONAL WEATHER ROUNDUP
NATIONAL WEATHER SERVICE SALT LAKE CITY UT
900 PM MDT FRI APR 20 2018

UTZ001>011-023>025-210400-

NORTHERN UTAH

CITY           SKY/WX    TMP DP  RH WIND       PRES   REMARKS
BRIGHAM CITY   CLEAR     55  36  49 SE6       30.04R
HILL AFB       CLEAR     56  30  37 CALM      30.05R
LOGAN          CLEAR     60  31  33 N12       30.02R
OGDEN          CLEAR     55  33  43 S6        30.03R
SALT LAKE CITY CLEAR     58  35  42 CALM      30.04R
TOOELE VALLEY  CLEAR     43  37  81 S9        30.06R
WENDOVER       CLEAR     61  20  20 N13       30.07
HEBER CITY     MOCLDY    50  32  50 S6        30.04R
WEST JORDAN    CLEAR     55  34  45 CALM      30.06R

$$

UTZ011>015-024>027-210400-

CENTRAL/NORTHEAST UTAH

CITY           SKY/WX    TMP DP  RH WIND       PRES   REMARKS
PROVO AIRPORT  PTCLDY    53  36  52 CALM      30.07R
MOAB/CANYONLAN CLOUDY    49  36  61 NW23      30.01R
DELTA          CLEAR     45  37  76 S10       30.10R
PRICE          CLOUDY    40  40 100 CALM      30.07S
ROOSEVELT      RAIN      43  37  81 CALM      30.10R
VERNAL         LGT RAIN  42  39  89 NE3       30.07R

$$

UTZ013>016-019>022-027-210400-

SOUTHERN UTAH

CITY           SKY/WX    TMP DP  RH WIND       PRES   REMARKS
BRYCE CANYON   PTCLDY    36  29  75 NW10      30.16R WCI  28
CEDAR CITY     CLEAR     43  35  73 SE6       30.12R
MILFORD        CLEAR     46  43  89 SW7       30.11R
ST GEORGE      PTCLDY    62  34  35 S3        30.06R
HANKSVILLE     PTCLDY    52  30  43 NW6       30.08R
BLANDING         N/A     41  30  64 W7        30.12R

$$

REGIONAL REPORTS     COLORADO/ARIZONA

CITY           SKY/WX    TMP DP  RH WIND       PRES   REMARKS
CRAIG, CO      LGT RAIN  36  34  92 SW12      29.99S WCI  28
GRAND JUNCTION LGT RAIN  42  38  85 E7        30.04R
RIFLE, CO      LGT RAIN  37  35  92 SE5       30.06R WCI  33
MONTROSE, CO   CLOUDY    42  27  55 NW13      30.08R
CORTEZ, CO     MOCLDY    39  28  64 NE7       30.07R WCI  34
COLORADO CITY    N/A     46  34  61 E5        30.13S
PAGE, AZ       PTCLDY    52  36  54 CALM      30.07R
GRAND CANYON   CLEAR     33  32  96 CALM      30.16R
KINGMAN, AZ    CLEAR     64  27  24 NE3       30.06R
FLAGSTAFF, AZ  CLEAR     36  29  75 S3        30.15R

$$

REGIONAL REPORTS    NEVADA/IDAHO/WYOMING

CITY           SKY/WX    TMP DP  RH WIND       PRES   REMARKS
LAS VEGAS, NV  CLEAR     75  29  18 E6        29.97R
ELY, NY        CLEAR     52  15  23 NW15      30.16R
ELKO, NV       CLEAR     53  21  28 N6        30.16R
POCATELLO, ID  CLEAR     54  31  41 SW13      30.07R
BURLEY, ID     CLEAR     52  28  39 W9        30.08R
FORT BRIDGER,  CLOUDY    40  39  97 E15       30.09R WCI  32
EVANSTON, WY   CLOUDY    48  27  44 NW13      30.07R
ROCK SPRINGS,  CLOUDY    37  30  75 SE7       30.09R WCI  32
KEMMERER, WY   MOCLDY    41  32  70 SE7       30.09R

$$



USA.gov is the U.S. government's official web portal to all federal, state and local government web resources and services.